Regional Weather Roundup
Issued by NWS Sioux Falls, SD

Home | Current Version | Previous Version | Graphics & Text | Print | Product List | Glossary On
Versions: 1 2 3 4 5 6 7 8 9 10 11 12 13 14 15 16 17 18 19 20 21 22 23 24 25 26 27 28 29 30 31 32 33 34 35 36 37 38 39 40 41 42 43 44 45 46 47 48 49 50
000
ASUS43 KFSD 250702
RWRFSD

WEATHER ROUNDUP FOR SE SOUTH DAKOTA/SW MINNESOTA/NW IOWA
NATIONAL WEATHER SERVICE SIOUX FALLS SD
200 AM CDT SAT MAR 25 2017

NOTE: "FAIR" INDICATES FEW OR NO CLOUDS BELOW 12,000 FEET WITH NO
SIGNIFICANT WEATHER AND OR OBSTRUCTIONS TO VISIBILITY.


SDZ038>040-050-052>070-250800-
SOUTHEAST SOUTH DAKOTA

CITY           SKY/WX    TMP DP  RH WIND       PRES   REMARKS
BROOKINGS      CLOUDY    34  31  88 E13       30.12F WCI  25
CHAMBERLAIN    CLOUDY    35  34  98 NE3       30.14F
HURON          CLOUDY    38  34  85 NE3       30.15F
MADISON        CLOUDY    32  32 100 NE16      30.12S WCI  21
MITCHELL       CLOUDY    39  34  82 NE9       30.15F
SIOUX FALLS    CLOUDY    36  34  92 NE17      30.11S
WINNER         FAIR      29  27  92 CALM      30.12F FOG
YANKTON        CLOUDY    36  34  93 NE12      30.10S
$$

MNZ071-072-080-081-089-090-097-098-250800-
SOUTHWEST MINNESOTA

CITY           SKY/WX    TMP DP  RH WIND       PRES   REMARKS
FAIRMONT       CLOUDY    38  36  92 NE15      30.09F
JACKSON        CLOUDY    36  34  93 NE14      30.09F FOG
LUVERNE        CLOUDY    34  32  93 NE15G21   30.10F FOG     WCI  24
MARSHALL       CLOUDY    36  32  85 E9        30.17S
MONTEVIDEO     CLOUDY    36  34  93 SE6       30.19F
PIPESTONE      CLOUDY    34  30  86 E12G20    30.11S FOG     WCI  25
REDWOOD FALLS  CLOUDY    37  32  82 NE6       30.16F
TRACY          CLOUDY    36  34  93 NE9       30.15S
WINDOM         CLOUDY    37  36  93 NE14      30.11S
WORTHINGTON    CLOUDY    35  34  96 NE18      30.09F FOG     WCI  24
$$

IAZ001>003-012>014-020>022-031-032-NEZ013-014-SDZ071-250800-
NORTHWEST IOWA

CITY           SKY/WX    TMP DP  RH WIND       PRES   REMARKS
CHEROKEE       CLOUDY    39  38  98 NE14G22   30.03S FOG
ESTHERVILLE    CLOUDY    37  37 100 NE17      30.07F
LE MARS        CLOUDY    39  37  93 NE12      30.06F FOG
ORANGE CITY    CLOUDY    37  37 100 NE10G18   30.05F FOG
SHELDON        CLOUDY    37  37 100 NE16      30.05F FOG
SIOUX CITY     CLOUDY    40  39  97 N13       30.04F FOG
SPENCER        CLOUDY    38  37  97 NE22      30.04F
STORM LAKE     CLOUDY    39  37  93 NE22G30   30.00S FOG
$$

ABBREVIATIONS USED IN REMARKS
   TC - TEMPERATURE IN CELSIUS
  WCI - WIND CHILL INDEX
   HX - HEAT INDEX
  VSB - VISIBILITY




USA.gov is the U.S. government's official web portal to all federal, state and local government web resources and services.